KC3BHK-2 Weather Reports


Display with metric or nautical units.
time (UTC)temp
F
wind
direction
speed
MPH
gust
MPH
rain 1hr
in
rain 24hr
in
rain mn
in
humidity
%
barometer
mb
20260505053121 59 226 2.0 3.0 0.00 0.00 0.00
20260505052617 58 135 2.0 0.0 0.00 0.00 0.00
20260505052112 59 159 0.0 0.0 0.00 0.00 0.00
20260505051604 58 159 0.0 0.0 0.00 0.00 0.00
20260505051058 59 159 0.0 4.0 0.00 0.00 0.00
20260505050554 60 159 0.0 5.0 0.00 0.00 0.00
20260505041458 62 163 5.0 8.0 0.00 0.00 0.00
20260505040953 63 148 6.0 9.0 0.00 0.00 0.00
20260505040448 64 155 6.0 8.0 0.00 0.00 0.00
20260505035944 63 132 4.0 6.0 0.00 0.00 0.00
20260505035439 64 162 4.0 7.0 0.00 0.00 0.00
20260505034934 63 170 2.0 6.0 0.00 0.00 0.00
20260505034426 64 163 5.0 7.0 0.00 0.00 0.00
20260505033922 64 160 3.0 9.0 0.00 0.00 0.00
20260505033417 63 167 4.0 8.0 0.00 0.00 0.00
20260505032912 64 152 4.0 7.0 0.00 0.00 0.00
20260505032408 64 110 2.0 6.0 0.00 0.00 0.00
20260505031903 64 167 4.0 8.0 0.00 0.00 0.00
20260505030346 66 148 3.0 8.0 0.00 0.00 0.00
20260505025841 65 145 3.0 8.0 0.00 0.00 0.00
20260505025336 66 138 4.0 7.0 0.00 0.00 0.00
20260505024830 64 152 6.0 8.0 0.00 0.00 0.00
20260505024323 64 176 4.0 7.0 0.00 0.00 0.00
20260505023818 65 162 4.0 6.0 0.00 0.00 0.00
20260505023314 65 197 3.0 5.0 0.00 0.00 0.00
20260505022809 66 179 3.0 6.0 0.00 0.00 0.00
20260505022304 65 219 2.0 8.0 0.00 0.00 0.00
20260505021800 65 198 6.0 9.0 0.00 0.00 0.00
20260505021252 66 217 4.0 9.0 0.00 0.00 0.00
20260505020748 66 221 4.0 8.0 0.00 0.00 0.00
20260505020243 66 219 5.0 9.0 0.00 0.00 0.00
20260505015738 67 205 6.0 10.0 0.00 0.00 0.00
20260505015233 67 165 6.0 11.0 0.00 0.00 0.00
20260505014729 68 172 5.0 11.0 0.00 0.00 0.00
20260505014221 68 153 5.0 10.0 0.00 0.00 0.00
20260505013716 68 174 9.0 14.0 0.00 0.00 0.00
20260505013212 68 172 6.0 10.0 0.00 0.00 0.00
20260505012707 68 186 5.0 10.0 0.00 0.00 0.00
20260505012202 68 172 7.0 9.0 0.00 0.00 0.00
20260505011658 68 180 8.0 9.0 0.00 0.00 0.00
20260505011150 68 162 7.0 10.0 0.00 0.00 0.00
20260505010645 69 158 5.0 13.0 0.00 0.00 0.00
20260505010141 69 201 9.0 13.0 0.00 0.00 0.00
20260505005636 68 177 7.0 11.0 0.00 0.00 0.00
20260505005131 69 152 4.0 13.0 0.00 0.00 0.00
20260505004627 70 146 8.0 11.0 0.00 0.00 0.00
20260505004119 69 163 5.0 12.0 0.00 0.00 0.00
20260505003614 69 160 9.0 12.0 0.00 0.00 0.00
20260505003110 69 180 10.0 11.0 0.00 0.00 0.00
20260505002605 70 174 8.0 10.0 0.00 0.00 0.00
20260505002100 70 143 4.0 13.0 0.00 0.00 0.00
20260505001556 71 158 5.0 11.0 0.00 0.00 0.00
20260505001048 70 170 4.0 15.0 0.00 0.00 0.00
20260505000544 70 170 4.0 15.0 0.00 0.00 0.00
20260505000039 71 143 6.0 10.0 0.00 0.00 0.00
20260504235535 71 153 8.0 10.0 0.00 0.00 0.00
20260504235030 70 129 5.0 12.0 0.00 0.00 0.00
20260504234525 70 204 6.0 11.0 0.00 0.00 0.00
20260504234018 71 165 6.0 13.0 0.00 0.00 0.00
20260504233513 72 195 8.0 14.0 0.00 0.00 0.00
20260504233008 70 162 9.0 11.0 0.00 0.00 0.00
20260504232504 72 186 9.0 12.0 0.00 0.00 0.00
20260504231959 73 127 8.0 11.0 0.00 0.00 0.00
20260504231454 72 153 8.0 13.0 0.00 0.00 0.00
20260504230946 72 145 8.0 13.0 0.00 0.00 0.00
20260504230441 74 143 7.0 13.0 0.00 0.00 0.00
20260504225936 74 165 9.0 12.0 0.00 0.00 0.00
20260504225431 74 159 5.0 14.0 0.00 0.00 0.00
20260504224926 74 169 8.0 19.0 0.00 0.00 0.00
20260504224422 75 198 5.0 21.0 0.00 0.00 0.00
20260504223914 78 180 12.0 16.0 0.00 0.00 0.00
20260504223410 75 146 8.0 19.0 0.00 0.00 0.00
20260504222401 76 148 9.0 14.0 0.00 0.00 0.00
20260504221856 76 191 7.0 16.0 0.00 0.00 0.00
20260504221351 76 203 6.0 18.0 0.00 0.00 0.00
20260504220844 77 203 8.0 16.0 0.00 0.00 0.00
20260504215835 80 183 5.0 12.0 0.00 0.00 0.00
20260504215330 79 215 4.0 12.0 0.00 0.00 0.00
20260504214825 78 129 7.0 13.0 0.00 0.00 0.00
20260504214321 79 128 6.0 14.0 0.00 0.00 0.00
20260504213813 75 172 8.0 19.0 0.00 0.00 0.00
20260504213309 75 138 9.0 15.0 0.00 0.00 0.00
20260504212804 76 146 7.0 19.0 0.00 0.00 0.00
20260504212259 76 163 6.0 13.0 0.00 0.00 0.00
20260504211755 75 203 8.0 11.0 0.00 0.00 0.00
20260504211250 75 177 6.0 19.0 0.00 0.00 0.00
20260504210743 74 163 8.0 11.0 0.00 0.00 0.00
20260504210238 76 208 8.0 16.0 0.00 0.00 0.00
20260504205733 77 181 9.0 17.0 0.00 0.00 0.00
20260504205229 78 197 8.0 20.0 0.00 0.00 0.00
20260504204724 78 198 5.0 15.0 0.00 0.00 0.00
20260504204219 77 180 13.0 17.0 0.00 0.00 0.00
20260504203712 78 207 13.0 23.0 0.00 0.00 0.00
20260504203207 78 193 7.0 16.0 0.00 0.00 0.00
20260504202703 80 162 11.0 18.0 0.00 0.00 0.00
20260504202158 79 129 9.0 16.0 0.00 0.00 0.00
20260504201653 79 219 12.0 15.0 0.00 0.00 0.00
20260504201149 76 177 15.0 17.0 0.00 0.00 0.00
20260504200641 76 219 8.0 13.0 0.00 0.00 0.00
20260504200136 77 150 8.0 15.0 0.00 0.00 0.00
20260504195631 80 136 13.0 13.0 0.00 0.00 0.00
20260504195127 78 183 5.0 16.0 0.00 0.00 0.00
20260504194622 79 132 11.0 13.0 0.00 0.00 0.00
20260504194117 78 219 8.0 12.0 0.00 0.00 0.00
20260504193609 78 195 5.0 16.0 0.00 0.00 0.00
20260504193104 79 200 7.0 11.0 0.00 0.00 0.00
20260504192600 78 152 6.0 13.0 0.00 0.00 0.00
20260504192055 78 125 5.0 14.0 0.00 0.00 0.00
20260504191551 79 226 8.0 15.0 0.00 0.00 0.00
20260504191046 77 181 7.0 14.0 0.00 0.00 0.00
20260504190538 77 257 9.0 14.0 0.00 0.00 0.00
20260504190034 76 183 6.0 13.0 0.00 0.00 0.00
20260504185529 76 195 9.0 14.0 0.00 0.00 0.00
20260504185025 78 172 4.0 11.0 0.00 0.00 0.00
20260504184520 77 221 9.0 15.0 0.00 0.00 0.00
20260504184016 77 214 8.0 15.0 0.00 0.00 0.00
20260504183508 75 186 12.0 15.0 0.00 0.00 0.00
20260504183003 75 200 11.0 14.0 0.00 0.00 0.00
20260504182459 77 194 7.0 13.0 0.00 0.00 0.00
20260504181954 73 172 9.0 16.0 0.00 0.00 0.00
20260504181449 76 231 14.0 12.0 0.00 0.00 0.00
20260504180437 73 155 6.0 14.0 0.00 0.00 0.00
20260504175932 73 190 5.0 11.0 0.00 0.00 0.00
20260504175428 75 214 7.0 14.0 0.00 0.00 0.00
20260504174923 74 170 5.0 12.0 0.00 0.00 0.00
20260504174418 75 159 4.0 12.0 0.00 0.00 0.00
20260504173914 73 307 2.0 16.0 0.00 0.00 0.00
20260504173406 75 166 12.0 12.0 0.00 0.00 0.00
20260504172901 74 197 7.0 15.0 0.00 0.00 0.00
20260504171852 73 211 6.0 12.0 0.00 0.00 0.00
20260504171348 75 139 9.0 12.0 0.00 0.00 0.00
20260504170843 73 142 8.0 13.0 0.00 0.00 0.00
20260504170336 73 218 7.0 13.0 0.00 0.00 0.00
20260504160235 72 186 7.0 10.0 0.00 0.00 0.00
20260504151145 69 235 10.0 12.0 0.00 0.00 0.00
20260504150640 68 249 7.0 15.0 0.00 0.00 0.00
20260504150133 68 172 7.0 11.0 0.00 0.00 0.00
20260504141042 65 190 5.0 8.0 0.00 0.00 0.00
20260504140538 64 194 3.0 10.0 0.00 0.00 0.00
20260504130433 57 174 5.0 8.0 0.00 0.00 0.00
20260504110223 47 166 1.0 4.0 0.00 0.00 0.00
20260504100117 45 218 2.0 3.0 0.00 0.00 0.00
20260504081925 42 70 0.0 0.0 0.00 0.00 0.00
20260504081419 43 70 0.0 0.0 0.00 0.00 0.00
20260504080914 41 70 0.0 0.0 0.00 0.00 0.00
20260504080409 40 70 0.0 0.0 0.00 0.00 0.00
20260504070301 38 70 0.0 0.0 0.00 0.00 0.00
20260504060152 36 70 0.0 0.0 0.00 0.00 0.00